This is the latest recevied weather packets stored in our database for station/object AI4QX-5. If no packets are shown the sender has not sent any weather packets the latest 10 day(s).
| Time | Temp. | Humidity | Pressure | Rain* | Wind** | Luminosity | Snow |
|---|---|---|---|---|---|---|---|
| 1777487400 | 30° C | 40% | 1013.1 hPa | 0 mm | - | - | - |
| 1777486800 | 30° C | 40% | 1013.3 hPa | 0 mm | - | - | - |
| 1777485600 | 29.44° C | 43% | 1013.6 hPa | 0 mm | - | - | - |
| 1777485000 | 30° C | 41% | 1013.7 hPa | 0 mm | - | - | - |
| 1777484400 | 30° C | 41% | 1013.7 hPa | 0 mm | - | - | - |
| 1777483800 | 29.44° C | 44% | 1013.8 hPa | 0 mm | - | - | - |
| 1777483200 | 29.44° C | 41% | 1014 hPa | 0 mm | - | - | - |
| 1777482600 | 29.44° C | 44% | 1014.2 hPa | 0 mm | - | - | - |
| 1777482000 | 29.44° C | 40% | 1014.4 hPa | 0 mm | - | - | - |
| 1777481400 | 29.44° C | 41% | 1014.7 hPa | 0 mm | - | - | - |
| 1777480801 | 28.89° C | 40% | 1015 hPa | 0 mm | - | - | - |
| 1777480201 | 28.89° C | 40% | 1015.2 hPa | 0 mm | - | - | - |
| 1777479600 | 28.89° C | 40% | 1015.4 hPa | 0 mm | - | - | - |
| 1777479000 | 28.33° C | 41% | 1015.5 hPa | 0 mm | - | - | - |
| 1777478400 | 28.33° C | 41% | 1015.7 hPa | 0 mm | - | - | - |
| 1777477800 | 28.33° C | 43% | 1015.9 hPa | 0 mm | - | - | - |
| 1777477200 | 27.78° C | 43% | 1015.8 hPa | 0 mm | - | - | - |
| 1777476600 | 27.78° C | 44% | 1016 hPa | 0 mm | - | - | - |
| 1777476000 | 27.22° C | 45% | 1016.3 hPa | 0 mm | - | - | - |
| 1777475400 | 27.22° C | 45% | 1016.2 hPa | 0 mm | - | - | - |
| 1777474800 | 26.67° C | 46% | 1016.3 hPa | 0 mm | - | - | - |
| 1777474200 | 26.67° C | 46% | 1016.8 hPa | 0 mm | - | - | - |
| 1777473600 | 26.67° C | 47% | 1016.6 hPa | 0 mm | - | - | - |
| 1777473001 | 26.11° C | 47% | 1016.4 hPa | 0 mm | - | - | - |
| 1777472400 | 26.11° C | 47% | 1016.3 hPa | 0 mm | - | - | - |
* Rain latest hour (hover to see other rain measurements)
** Current wind speed in m/s (hover to see current wind gust speed)